When you browse on this site, cookies collect data to enhance your experience and personalize the content and advertising you see.
Visit our Privacy Policy to learn more. By continuing to use the site, you agree to this use of cookies and data.
  • In Germany
  • List of Countries
  • For 7 days
  • Water Temperature
  • Satellite Maps
  • Weather Map
  • Weather Widgets
  • user-avatar
    Login

    Hourly Weather Manaus

    Today, 17 November, Saturday

    Time Temperature Precipitation Wind Pressure Humidity
    00:00 +28°C° 0 mm 1 mps 752 mmHg 79%
    01:00 +28°C° 0 mm 1 mps 752 mmHg 80%
    02:00 +25°C° 0 mm 0 mps 752 mmHg 82%
    03:00 +27°C° 0.1 mm 1 mps 752 mmHg 83%
    04:00 +27°C° 0.1 mm 1 mps 752 mmHg 84%
    05:00 +27°C° 0.1 mm 1 mps 752 mmHg 85%
    06:00 +28°C° 0.1 mm 1 mps 753 mmHg 78%
    07:00 +30°C° 0.1 mm 1 mps 753 mmHg 70%
    08:00 +32°C° 0.1 mm 1 mps 754 mmHg 63%
    09:00 +34°C° 0.7 mm 2 mps 754 mmHg 59%
    10:00 +35°C° 0.7 mm 2 mps 754 mmHg 56%
    11:00 +37°C° 0.7 mm 2 mps 754 mmHg 52%
    12:00 +37°C° 0.1 mm 2 mps 753 mmHg 49%
    13:00 +38°C° 0.1 mm 2 mps 752 mmHg 46%
    14:00 +38°C° 0.1 mm 2 mps 751 mmHg 43%
    15:00 +37°C° 0 mm 2 mps 751 mmHg 46%
    16:00 +37°C° 0 mm 2 mps 750 mmHg 48%
    17:00 +35°C° 0 mm 1 mps 750 mmHg 51%
    18:00 +34°C° 0 mm 1 mps 750 mmHg 56%
    19:00 +32°C° 0 mm 1 mps 751 mmHg 62%
    20:00 +31°C° 0 mm 1 mps 751 mmHg 67%
    21:00 +30°C° 0.9 mm 1 mps 752 mmHg 74%
    22:00 +29°C° 0.9 mm 1 mps 752 mmHg 80%
    23:00 +28°C° 0.9 mm 1 mps 752 mmHg 87%

    Tomorrow, 18 November, Sunday

    Time Temperature Precipitation Wind Pressure Humidity
    00:00 +27°C° 0.2 mm 1 mps 752 mmHg 88%
    01:00 +25°C° 0.2 mm 0 mps 752 mmHg 90%
    02:00 +25°C° 0.2 mm 0 mps 751 mmHg 91%
    03:00 +25°C° 0 mm 0 mps 751 mmHg 91%
    04:00 +25°C° 0 mm 0 mps 752 mmHg 91%
    05:00 +25°C° 0 mm 0 mps 752 mmHg 91%
    06:00 +26°C° 0.8 mm 0 mps 752 mmHg 87%
    07:00 +28°C° 0.8 mm 0 mps 753 mmHg 83%
    08:00 +31°C° 0.8 mm 1 mps 753 mmHg 78%
    09:00 +32°C° 1.1 mm 1 mps 754 mmHg 71%
    10:00 +34°C° 1.1 mm 1 mps 754 mmHg 63%
    11:00 +36°C° 1.1 mm 2 mps 754 mmHg 56%
    12:00 +36°C° 0.3 mm 2 mps 753 mmHg 53%
    13:00 +37°C° 0.3 mm 2 mps 752 mmHg 51%
    14:00 +37°C° 0.3 mm 2 mps 751 mmHg 49%
    15:00 +35°C° 0 mm 1 mps 750 mmHg 52%
    16:00 +34°C° 0 mm 1 mps 750 mmHg 55%
    17:00 +34°C° 0 mm 1 mps 750 mmHg 58%
    18:00 +33°C° 0 mm 1 mps 751 mmHg 63%
    19:00 +31°C° 0 mm 1 mps 751 mmHg 68%
    20:00 +30°C° 0 mm 1 mps 752 mmHg 73%
    21:00 +30°C° 0 mm 1 mps 752 mmHg 75%
    22:00 +29°C° 0 mm 1 mps 752 mmHg 77%
    23:00 +29°C° 0 mm 1 mps 752 mmHg 80%

    Day after tomorrow, 19 November, Monday

    Time Temperature Precipitation Wind Pressure Humidity
    00:00 +28°C° 0 mm 1 mps 752 mmHg 81%
    01:00 +26°C° 0 mm 0 mps 751 mmHg 81%
    02:00 +26°C° 0 mm 0 mps 750 mmHg 82%
    03:00 +26°C° 0 mm 0 mps 750 mmHg 83%
    04:00 +25°C° 0 mm 0 mps 751 mmHg 83%
    05:00 +25°C° 0 mm 0 mps 751 mmHg 84%
    06:00 +29°C° 0 mm 1 mps 751 mmHg 77%
    07:00 +31°C° 0 mm 1 mps 752 mmHg 70%
    08:00 +33°C° 0 mm 1 mps 753 mmHg 63%
    09:00 +34°C° 0.9 mm 1 mps 753 mmHg 58%
    10:00 +35°C° 0.9 mm 1 mps 753 mmHg 53%
    11:00 +36°C° 0.9 mm 1 mps 753 mmHg 48%
    12:00 +36°C° 0 mm 1 mps 752 mmHg 46%
    13:00 +34°C° 0 mm 0 mps 751 mmHg 44%
    14:00 +35°C° 0 mm 0 mps 750 mmHg 42%
    15:00 +34°C° 0 mm 0 mps 750 mmHg 44%
    16:00 +34°C° 0 mm 0 mps 749 mmHg 46%
    17:00 +33°C° 0 mm 0 mps 749 mmHg 48%
    18:00 +32°C° 0 mm 0 mps 750 mmHg 52%
    19:00 +30°C° 0 mm 0 mps 750 mmHg 56%
    20:00 +29°C° 0 mm 0 mps 751 mmHg 60%
    21:00 +28°C° 0 mm 0 mps 751 mmHg 61%
    22:00 +28°C° 0 mm 0 mps 751 mmHg 63%
    23:00 +28°C° 0 mm 0 mps 752 mmHg 64%

    20 November, Tuesday

    Time Temperature Precipitation Wind Pressure Humidity
    00:00 +27°C° 0 mm 0 mps 751 mmHg 65%
    01:00 +27°C° 0 mm 0 mps 751 mmHg 67%
    02:00 +27°C° 0 mm 0 mps 750 mmHg 68%
    03:00 +26°C° 0 mm 0 mps 750 mmHg 69%
    04:00 +26°C° 0 mm 0 mps 751 mmHg 70%
    05:00 +28°C° 0 mm 1 mps 751 mmHg 71%
    06:00 +29°C° 0.1 mm 1 mps 752 mmHg 68%
    07:00 +31°C° 0.1 mm 1 mps 753 mmHg 64%
    08:00 +32°C° 0.1 mm 2 mps 754 mmHg 60%
    09:00 +32°C° 0.4 mm 2 mps 753 mmHg 63%
    10:00 +32°C° 0.4 mm 2 mps 753 mmHg 66%
    11:00 +32°C° 0.4 mm 2 mps 753 mmHg 69%
    12:00 +34°C° 0.7 mm 2 mps 752 mmHg 65%
    13:00 +34°C° 0.7 mm 1 mps 751 mmHg 60%
    14:00 +34°C° 0.7 mm 1 mps 750 mmHg 56%
    15:00 +34°C° 0 mm 1 mps 750 mmHg 57%
    16:00 +34°C° 0 mm 1 mps 750 mmHg 58%
    17:00 +33°C° 0 mm 1 mps 750 mmHg 59%
    18:00 +30°C° 0.7 mm 0 mps 751 mmHg 66%
    19:00 +28°C° 0.7 mm 0 mps 751 mmHg 74%
    20:00 +26°C° 0.7 mm 0 mps 752 mmHg 82%
    21:00 +26°C° 0.1 mm 0 mps 752 mmHg 82%
    22:00 +26°C° 0.1 mm 0 mps 752 mmHg 83%
    23:00 +26°C° 0.1 mm 0 mps 752 mmHg 84%

    21 November, Wednesday

    Time Temperature Precipitation Wind Pressure Humidity
    00:00 +25°C° 0.1 mm 0 mps 752 mmHg 85%
    01:00 +25°C° 0.1 mm 0 mps 751 mmHg 87%
    02:00 +25°C° 0.1 mm 0 mps 751 mmHg 88%
    03:00 +25°C° 1.2 mm 0 mps 751 mmHg 90%
    04:00 +24°C° 1.2 mm 0 mps 752 mmHg 92%
    05:00 +24°C° 1.2 mm 0 mps 752 mmHg 94%
    06:00 +25°C° 1.4 mm 0 mps 753 mmHg 94%
    07:00 +25°C° 1.4 mm 0 mps 754 mmHg 93%
    08:00 +27°C° 1.4 mm 1 mps 754 mmHg 92%
    09:00 +26°C° 1.7 mm 0 mps 754 mmHg 90%
    10:00 +27°C° 1.7 mm 0 mps 754 mmHg 88%
    11:00 +28°C° 1.7 mm 0 mps 754 mmHg 85%
    12:00 +28°C° 1 mm 0 mps 753 mmHg 83%
    13:00 +31°C° 1 mm 1 mps 752 mmHg 80%
    14:00 +31°C° 1 mm 1 mps 751 mmHg 78%
    15:00 +31°C° 0.1 mm 1 mps 751 mmHg 79%
    16:00 +30°C° 0.1 mm 1 mps 751 mmHg 80%
    17:00 +29°C° 0.1 mm 1 mps 751 mmHg 82%
    18:00 +29°C° 0.2 mm 1 mps 752 mmHg 84%
    19:00 +28°C° 0.2 mm 1 mps 752 mmHg 86%
    20:00 +27°C° 0.2 mm 1 mps 753 mmHg 88%
    21:00 +27°C° 0.1 mm 1 mps 752 mmHg 90%
    22:00 +27°C° 0.1 mm 1 mps 752 mmHg 91%
    23:00 +27°C° 0.1 mm 1 mps 752 mmHg 92%

    22 November, Thursday

    Time Temperature Precipitation Wind Pressure Humidity
    00:00 +27°C° 0 mm 1 mps 752 mmHg 92%
    01:00 +27°C° 0 mm 1 mps 751 mmHg 92%
    02:00 +26°C° 0 mm 1 mps 751 mmHg 93%
    03:00 +26°C° 0.1 mm 1 mps 751 mmHg 93%
    04:00 +26°C° 0.1 mm 1 mps 751 mmHg 94%
    05:00 +26°C° 0.1 mm 1 mps 752 mmHg 94%
    06:00 +27°C° 0.2 mm 1 mps 752 mmHg 90%
    07:00 +28°C° 0.2 mm 1 mps 753 mmHg 85%
    08:00 +29°C° 0.2 mm 1 mps 754 mmHg 81%
    09:00 +30°C° 1.2 mm 1 mps 753 mmHg 80%
    10:00 +30°C° 1.2 mm 1 mps 753 mmHg 80%
    11:00 +31°C° 1.2 mm 1 mps 753 mmHg 79%
    12:00 +31°C° 1.3 mm 1 mps 752 mmHg 77%
    13:00 +32°C° 1.3 mm 1 mps 751 mmHg 76%
    14:00 +32°C° 1.3 mm 1 mps 750 mmHg 74%
    15:00 +31°C° 0.5 mm 1 mps 750 mmHg 77%
    16:00 +31°C° 0.5 mm 1 mps 750 mmHg 79%
    17:00 +30°C° 0.5 mm 1 mps 750 mmHg 82%
    18:00 +29°C° 0.3 mm 1 mps 751 mmHg 85%
    19:00 +28°C° 0.3 mm 1 mps 751 mmHg 88%
    20:00 +27°C° 0.3 mm 1 mps 752 mmHg 91%
    21:00 +27°C° 0.1 mm 1 mps 752 mmHg 91%
    22:00 +27°C° 0.1 mm 1 mps 752 mmHg 92%
    23:00 +27°C° 0.1 mm 1 mps 752 mmHg 93%
    Show more